Regional Weather Roundup
Issued by NWS

Home | Current Version | Previous Version | Text Only | Print | Product List | Glossary On
Versions: 1 2 3 4 5 6 7 8 9 10 11 12 13 14 15 16 17 18 19 20 21 22 23 24 25 26 27 28 29 30 31 32 33 34 35 36 37 38 39 40 41 42 43 44 45 46 47 48 49 50
000
ASUS43 KLSX 310759
RWRMO

WEATHER SUMMARY FOR MISSOURI
NATIONAL WEATHER SERVICE SPRINGFIELD MO
300 AM CDT THU JUL 31 2014

NOTE: "FAIR" INDICATES FEW OR NO CLOUDS BELOW 12,000 FEET WITH NO
       SIGNIFICANT WEATHER AND/OR OBSTRUCTIONS TO VISIBILITY.
       CURRENT SKY AND/OR WEATHER CONDITIONS ARE NOT AVAILABLE FOR
       CHILLICOTHE AND FARMINGTON.

MOZ001>031-035>038-043-044-053-054-310900-
...NORTHERN AND WESTERN MISSOURI...

CITY           SKY/WX    TMP DP  RH WIND       PRES   REMARKS
KANSAS CTY INT PTCLDY    64  57  78 CALM      30.10S
KANSAS C DTWN  CLEAR     66  61  84 N3        30.09S
LEE`S SUMMIT   CLEAR     63  60  90 CALM      30.10S
ST JOSEPH      CLEAR     57  55  93 CALM      30.10F
KIRKSVILLE     CLEAR     56  55  97 CALM      30.10S

$$
MOZ066>068-077>081-088>096-101>105-310900-
...SOUTHWEST MISSOURI...

CITY           SKY/WX    TMP DP  RH WIND       PRES   REMARKS
SPRINGFIELD    CLOUDY    67  64  90 N3        30.09S
JOPLIN         MOCLDY    65  65 100 NE3       30.09S FOG

$$
MOZ032>034-039>042-045>050-055>058-069>072-310900-
...CENTRAL MISSOURI...

CITY           SKY/WX    TMP DP  RH WIND       PRES   REMARKS
COLUMBIA       CLEAR     63  59  87 N7        30.09S
JEFFERSON CITY CLEAR     62  58  86 NW3       30.07F
ROLLA          CLEAR     57  56  96 SW6       30.07F
SEDALIA        CLEAR     63  60  90 NW3       30.09S
OSAGE BEACH    PTCLDY    59  55  88 CALM      30.09S

$$
MOZ051-052-059>065-310900-
...EAST CENTRAL MISSOURI...

CITY           SKY/WX    TMP DP  RH WIND       PRES   REMARKS
ST LOUIS INTL  PTCLDY    69  60  73 CALM      30.07F
SPIRIT OF STL  CLEAR     61  59  93 CALM      30.06F
ST CHARLES     CLEAR     60  59  96 N6        30.06F

$$
MOZ072>076-082>087-097>100-106>115-310900-
...SOUTH CENTRAL AND SOUTHEAST MISSOURI...

CITY           SKY/WX    TMP DP  RH WIND       PRES   REMARKS
CAPE GIRARDEAU PTCLDY    61  60  97 CALM      30.07S FOG
FARMINGTON     PTCLDY    61  59  94 CALM      30.11S
POPLAR BLUFF   CLOUDY    67  63  87 CALM      30.06S
WEST PLAINS    CLOUDY    66  64  93 CALM      30.10S FOG

$$


USA.gov is the U.S. government's official web portal to all federal, state and local government web resources and services.